Tracking 35237 objects as of 5-Sep-2026
HD Live streaming from Space Station
objects crossing your sky now

CZ-3B R/B

Track CZ-3B R/B now!
10-day predictions


NORAD ID: 62486
Int'l Code: 2025-002B
Launch date: January 6, 2025
Source: People's Republic of China (PRC)
Launch site: Xichang Space Center, China (XSC)

Note: This is a ROCKET BODY
Your satellite tracking list
Your tracking list is empty




NASA's NSSDC Master Catalog

Two Line Element Set (TLE):
1 62486U 25002B   26248.21144993  .00464683  22464-6  99266-3 0  9990
2 62486  28.4696 333.2258 4722000 160.5442 226.3590  6.31097188 15945
Source of the keplerian elements: AFSPC